Flag for Germany Weather past 2 weeks in Sankt Ingbert, Saarland, Germany

Now
62 °F

Partly sunny.


Feels Like: 62 °F
Forecast: 46 / 66 °F
Wind: 2 mph from Northwest

Location: Saarbruecken / Ensheim

Current Time: Sep 1, 2014 at 4:11:49 PM

Latest Report: Sep 1, 2014 at 4:00 PM


Visibility: 31 mi

Pressure: 30.15 "Hg

Humidity: 70%

Dew point: 52 °F

Location of Sankt IngbertLocation

Historic Weather in Sankt Ingbert — Graph

°F

Sankt Ingbert temperature yesterday

Maximum temperature yesterday: 61 °F (at 1:00 AM)
Minimum temperature yesterday: 54 °F (at 10:00 PM)
Average temperature yesterday: 58 °F

Past Weeks' High & Low Weather Summary

 TemperatureHumidityPressure
High74 °F (Aug 29, 5:00 PM)100% (Aug 24, 7:00 AM)30.17 "Hg (Aug 24, 7:00 AM)
Low41 °F (Aug 24, 6:00 AM)44% (Aug 19, 4:00 PM)29.66 "Hg (Aug 26, 6:00 AM)
Average57 °F82%29.99 "Hg
* Reported Aug 17 3:00 PM — Sep 1 3:00 PM, Sankt Ingbert, Weather by CustomWeather, © 2014

Note: Actual official high and low records may vary slightly from our data, if they occured in-between our weather recording intervals... More about our weather records

Advertising

Sankt Ingbert weather history for previous 24 hours

 ConditionsComfort  
Time TempWeatherWind HumidityBarometerVisibility
3:00 PM
Sep 1
63 °FPartly sunny.3 mph66%30.15 "Hg31 mi
2:00 PM64 °FScattered clouds.2 mph67%30.15 "Hg31 mi
1:00 PM61 °FScattered clouds.2 mph69%30.16 "Hg31 mi
12:00 PM58 °FPartly sunny.3 mph88%30.17 "Hg16 mi
11:00 AM57 °FPartly sunny.2 mph85%30.17 "Hg7 mi
10:00 AM55 °FScattered clouds.2 mph94%30.16 "Hg5 mi
9:00 AM52 °FFog.2 mph100%30.15 "Hg1 mi
8:00 AM48 °FFog.1 mph100%30.16 "Hg0 mi
7:00 AM47 °FFog.1 mph100%30.14 "Hg1 mi
6:00 AM47 °FFog.3 mph100%30.13 "Hg0 mi
5:00 AM48 °FFog.1 mph99%30.12 "Hg4 mi
4:00 AM49 °FPassing clouds.1 mph99%30.11 "Hg5 mi
3:00 AM50 °FPassing clouds.2 mph99%30.10 "Hg9 mi
2:00 AM51 °FFog.2 mph99%30.09 "Hg4 mi
1:00 AM53 °FLow clouds.3 mph99%30.08 "Hg5 mi
12:00 AM54 °FLow clouds.2 mph99%30.07 "Hg6 mi
11:00 PM
Aug 31
54 °FLight rain. Low clouds.2 mph97%30.06 "Hg19 mi
10:00 PM54 °FLight rain. Low clouds.2 mph97%30.06 "Hg25 mi
9:00 PM54 °FOvercast.2 mph95%30.04 "Hg31 mi
8:00 PM55 °FOvercast.3 mph94%30.02 "Hg22 mi
7:00 PM57 °FThunderstorms. Overcast.3 mph89%30.01 "Hg12 mi
6:00 PM59 °FOvercast.5 mph90%30.00 "Hg11 mi
5:00 PM58 °FOvercast.3 mph92%29.99 "Hg12 mi
4:00 PM59 °FSprinkles. Overcast.6 mph84%29.99 "Hg9 mi
Weather by CustomWeather, © 2014

See weather overviewHow to use our weather pages